Regional Weather Roundup
Issued by NWS

Home | Current Version | Previous Version | Graphics & Text | Print | Product List | Glossary On
Versions: 1 2 3 4 5 6 7 8 9 10 11 12 13 14 15 16 17 18 19 20 21 22 23 24 25 26 27 28 29 30 31 32 33 34 35 36 37 38 39 40 41 42 43 44 45 46 47 48 49 50
870
ASUS43 KLOT 260612
RWRIL

ILLINOIS REGIONAL WEATHER ROUNDUP
NATIONAL WEATHER SERVICE CHICAGO/ROMEOVILLE IL
1200 AM CST SUN FEB 26 2017

NOTE: "FAIR" INDICATES FEW OR NO CLOUDS BELOW 12,000 FEET WITH NO
SIGNIFICANT WEATHER AND/OR OBSTRUCTIONS TO VISIBILITY.

* THESE STATIONS ARE NOT UNDER NWS QUALITY CONTROL. THEY ALSO MAY NOT
  REPORT WEATHER SUCH AS PRECIPITATION OR FOG.

ILZ001-002-007-009-015-016-024-260700-
NORTHWEST ILLINOIS

CITY           SKY/WX    TMP DP  RH WIND       PRES   REMARKS
MOLINE         CLOUDY    28  18  66 S7        30.05F WCI  21
6HR MIN TEMP:  26; 6HR MAX TEMP:  30;

STERLING*      CLOUDY    25  20  81 CALM      30.06S
$$

ILZ003-004-008-010-011-017-018-260700-
NORTH CENTRAL ILLINOIS

CITY           SKY/WX    TMP DP  RH WIND       PRES   REMARKS
ROCKFORD       PTCLDY    23  16  74 S5        30.05F WCI  17
6HR MIN TEMP:  21; 6HR MAX TEMP:  25;

FREEPORT*      CLOUDY    23  18  80 SW6       30.04S WCI  16
ROCHELLE*      MOCLDY    22  19  87 SW6       30.05S WCI  14
DE KALB*       CLOUDY    23  18  80 W8        30.03F WCI  14
PERU*          CLOUDY    26  18  73 W7        30.07F WCI  18
$$

ILZ005-006-012>014-019>023-260700-
NORTHEAST ILLINOIS

CITY           SKY/WX    TMP DP  RH WIND       PRES   REMARKS
CHICAGO-OHARE  CLOUDY    26  15  63 W9        30.04R WCI  17
6HR MIN TEMP:  25; 6HR MAX TEMP:  27;

CHICAGO-MIDWAY CLOUDY    26  13  57 W12       30.05S WCI  16
6HR MIN TEMP:  25; 6HR MAX TEMP:  26;

AURORA         PTCLDY    24  18  77 W6        30.05S WCI  17
6HR MIN TEMP:  22; 6HR MAX TEMP:  26;

LANSING*       CLOUDY    23  17  78 W5        30.06S WCI  17
JOLIET*        PTCLDY    26  20  80 CALM      30.07S
WAUKEGAN       CLOUDY    23  14  68 W5        30.01S WCI  17
6HR MIN TEMP:  23; 6HR MAX TEMP:  24;

DUPAGE AIRPORT CLOUDY    23  15  71 W7        30.03S WCI  15
6HR MIN TEMP:  23; 6HR MAX TEMP:  25;

KANKAKEE*      PTCLDY    25  19  79 CALM      30.09R
WHEELING       CLOUDY    24  14  65 W5        30.05S WCI  18
6HR MIN TEMP:  24; 6HR MAX TEMP:  25;

MORRIS*        PTCLDY    24  19  82 W3        30.05F
ROMEOVILLE*    CLOUDY    24  21  90 W5        30.06S WCI  18
NORTHERLY ISL    N/A     27  15  61 W10         N/A  WCI  17
$$

LMZ740>746-260700-
SOUTHERN LAKE MICHIGAN

STATION/POSITION SKY/WX   TEMP    WIND        PRES    VSBY  WAVE
                          AIR SEA DIR/SP/G                  HT/PER
                          (F)     (DEG/KT/KT) (MB)    (MI)  (FT/S)
HARRISON CRIB              27     290/ 12/ 15   N/A
BURNHAM HARBOR             27     290/  6/ 13   N/A
CALUMET HARBOR             26     250/  3/  6 1017.2R
BURNS HARBOR               28     290/ 13/ 16 1017.9R
MICHIGAN CITY              27     260/ 16/ 18   N/A
$$

ILZ025>027-034>036-040-047-049-050-058-095>099-260700-
WEST-CENTRAL ILLINOIS

CITY           SKY/WX    TMP DP  RH WIND       PRES   REMARKS
QUINCY         MOCLDY    28  14  55 S7        30.07F WCI  21
GALESBURG*     CLOUDY    24  20  83 CALM      30.07F
MACOMB*        PTCLDY    22  17  82 S5        30.10S WCI  16
JACKSONVILLE*  CLEAR     22  13  70 S5        30.11S WCI  15
PITTSFIELD*    CLEAR     23  17  78 S5        30.11S WCI  17
$$

ILZ028>032-037-038-041>044-048-051>054-059>061-260700-
CENTRAL ILLINOIS

CITY           SKY/WX    TMP DP  RH WIND       PRES   REMARKS
PONTIAC        CLEAR     24  20  85 W8        30.09S WCI  15
BLOOMINGTON    CLOUDY    23  17  78 W7        30.09S WCI  15
DECATUR        CLEAR     25  14  63 W3        30.11S
PEORIA         CLOUDY    25  17  72 SW5       30.10R WCI  19
6HR MIN TEMP:  25; 6HR MAX TEMP:  30;

LACON*         CLOUDY    26  19  72 CALM      30.08S
LINCOLN*       PTCLDY    24  17  72 CALM      30.12R
SPRINGFIELD    CLEAR     24  14  65 CALM      30.12S
6HR MIN TEMP:  21; 6HR MAX TEMP:  33;

TAYLORVILLE    CLEAR     23  13  66 CALM      30.13S
6HR MIN TEMP:  22; 6HR MAX TEMP:  32;

$$

ILZ033-039-045-046-055>057-062-063-260700-
EAST-CENTRAL ILLINOIS

CITY           SKY/WX    TMP DP  RH WIND       PRES   REMARKS
CHAMPAIGN      CLEAR     19  13  77 W7        30.10S WCI  10
RANTOUL*       CLEAR     26  20  80 W6        30.09R WCI  19
MATTOON        CLEAR     25  14  63 W5        30.11R WCI  19
PARIS*         CLEAR     21  16  82 W3        30.12R
$$

ILZ079-100>102-260700-
SOUTHWEST ILLINOIS

CITY           SKY/WX    TMP DP  RH WIND       PRES   REMARKS
ALTON          CLEAR     22  16  76 CALM      30.13S
BELLEVILLE     PTCLDY    24  17  75 CALM      30.13S
CAHOKIA*       CLEAR     24  14  65 CALM      30.14S
SPARTA*        CLEAR     26  18  70 CALM      30.16S
$$

ILZ064>066-069>071-074>076-080>082-084>086-088>090-092>094-260700-
SOUTH-CENTRAL ILLINOIS

CITY           SKY/WX    TMP DP  RH WIND       PRES   REMARKS
CARBONDALE     CLEAR     25  19  78 SE3       30.16S
6HR MIN TEMP:  23; 6HR MAX TEMP:  37;

CAIRO*         CLEAR     31  17  56 CALM      30.17S
EFFINGHAM*     CLEAR     26  17  70 CALM      30.15F
MARION         CLEAR     27  18  69 CALM      30.17S
MT. VERNON     CLEAR     19  16  88 CALM      30.16S
CENTRALIA*     CLEAR     24  19  82 CALM      30.14S
SALEM*         CLEAR     27  18  70 CALM      30.14S
METROPOLIS*    PTCLDY    27  20  73 CALM      30.17F
$$

ILZ067-068-072-073-078-083-087-091-260700-
SOUTHEAST ILLINOIS

CITY           SKY/WX    TMP DP  RH WIND       PRES   REMARKS
LAWRENCEVILLE  CLEAR     27  18  69 NW8       30.15R WCI  19
FLORA*         CLEAR     24  17  74 W3        30.15F
FAIRFIELD*     CLEAR     26  19  77 CALM      30.15S
HARRISBURG*    CLEAR     26  24  89 CALM      30.17S
ROBINSON*      CLEAR     25  17  71 W7        30.15R WCI  17
CARMI*         CLEAR     26  19  75 CALM      30.15S
$$

ABBREVIATIONS USED IN REMARKS
   TC - TEMPERATURE IN CELSIUS
  WCI - WIND CHILL INDEX
   HX - HEAT INDEX
  VSB - VISIBILITY
$$





USA.gov is the U.S. government's official web portal to all federal, state and local government web resources and services.